{"data":{"norad_id":56716,"epoch":"2026-09-19T17:11:38.676768Z","epoch_age_seconds":89715,"freshness":"FRESH","line1":"1 56716U 23068G   26262.71641987  .00000008  00000+0 -12940-4 0  9993","line2":"2 56716  87.9288 225.1615 0001907  96.1100 264.0252 13.21826196163588","mean_motion":13.21826196,"eccentricity":0.0001907,"inclination_deg":87.9288,"raan_deg":225.1615,"arg_perigee_deg":96.11,"mean_anomaly_deg":264.0252,"bstar":-1.294e-5,"rev_number":16358,"period_min":108.94019231557,"perigee_km":1176.3117132936,"apogee_km":1179.1935295952,"semimajor_km":7555.8896214444,"source":"CELESTRAK","updated_at":"2026-09-20T09:00:44.795541Z"}}